TimeCDT,TemperatureF,Dew PointF,Humidity,Sea Level PressureIn,VisibilityMPH,Wind Direction,Wind SpeedMPH,Gust SpeedMPH,PrecipitationIn,Events,Conditions,WindDirDegrees,DateUTC
12:00 AM,1.4,-4.0,78,30.42,15.0,North,3.5,-,N/A,,Partly Cloudy,360,2012-11-02 05:00:00
1:00 AM,0,-5,72,30.43,15,Calm,Calm,,,,Clear,,2012-11-02 06:00:00
1:00 AM,-0.4,-4.0,85,30.43,15.0,Calm,Calm,-,N/A,,Partly Cloudy,0,2012-11-02 06:00:00
2:00 AM,-0.4,-5.8,78,30.43,15.0,Calm,Calm,-,N/A,,Partly Cloudy,0,2012-11-02 07:00:00
3:00 AM,1.4,-2.2,85,30.43,15.0,NE,2.3,-,N/A,,Scattered Clouds,40,2012-11-02 08:00:00
4:00 AM,60.8,-0.4,8,30.39,15.0,Calm,Calm,-,N/A,,Scattered Clouds,0,2012-11-02 09:00:00
5:00 AM,5.0,1.4,85,30.39,15.0,NE,2.3,-,N/A,,Scattered Clouds,40,2012-11-02 10:00:00
6:00 AM,3.2,-0.4,85,30.38,15.0,NE,3.5,-,N/A,,Scattered Clouds,50,2012-11-02 11:00:00
7:00 AM,4,-0,75,30.41,15,ENE,2.3,,,,Clear,70,2012-11-02 12:00:00
7:00 AM,3.2,-0.4,85,30.41,15.0,East,3.5,-,N/A,,Scattered Clouds,80,2012-11-02 12:00:00
8:00 AM,1.4,-2.2,85,30.42,15.0,Calm,Calm,-,N/A,,Mostly Cloudy,0,2012-11-02 13:00:00
9:00 AM,6.8,3.2,85,30.41,15.0,East,2.3,-,N/A,,Mostly Cloudy,90,2012-11-02 14:00:00
10:00 AM,8.6,6.8,92,30.42,15.0,ESE,3.5,-,N/A,,Mostly Cloudy,120,2012-11-02 15:00:00
11:00 AM,8.6,8.6,100,30.41,15.0,East,3.5,-,N/A,,Overcast,100,2012-11-02 16:00:00
11:13 AM,-9999,-9999,N/A,-9999,15.0,ESE,3.5,-,N/A,,Unknown,110,2012-11-02 16:13:00
12:00 PM,12.2,10.4,92,30.40,15.0,ESE,4.6,-,N/A,Snow,Light Snow,110,2012-11-02 17:00:00
1:00 PM,13,11,87,30.39,15,SE,2.3,,,Snow,Light Snow,140,2012-11-02 18:00:00
1:00 PM,12.2,10.4,92,30.39,15.0,Calm,Calm,-,N/A,Snow,Light Snow,0,2012-11-02 18:00:00
2:00 PM,14.0,12.2,93,30.38,15.0,NE,2.3,-,N/A,Snow,Light Snow,40,2012-11-02 19:00:00
3:00 PM,17.6,12.2,79,30.37,15.0,SSE,3.5,-,N/A,,Mostly Cloudy,150,2012-11-02 20:00:00
4:00 PM,19.4,12.2,74,30.32,15.0,South,3.5,-,N/A,,Mostly Cloudy,180,2012-11-02 21:00:00
5:00 PM,17.6,12.2,79,30.32,15.0,South,3.5,-,N/A,,Mostly Cloudy,180,2012-11-02 22:00:00
6:00 PM,15.8,14.0,93,30.30,15.0,SE,4.6,-,N/A,,Overcast,130,2012-11-02 23:00:00
7:00 PM,16,14,86,30.34,15,SE,4.6,,,,Partly Cloudy,140,2012-11-03 00:00:00
7:00 PM,15.8,14.0,93,30.34,15.0,SE,3.5,-,N/A,,Overcast,140,2012-11-03 00:00:00
8:00 PM,15.8,14.0,93,30.35,15.0,Calm,Calm,-,N/A,,Overcast,0,2012-11-03 01:00:00
9:00 PM,12.2,10.4,92,30.35,15.0,Calm,Calm,-,N/A,,Mostly Cloudy,0,2012-11-03 02:00:00
10:00 PM,10.4,8.6,92,30.35,15.0,SE,3.5,-,N/A,,Mostly Cloudy,140,2012-11-03 03:00:00
11:00 PM,14.0,14.0,100,30.34,15.0,Calm,Calm,-,N/A,,Mostly Cloudy,0,2012-11-03 04:00:00